Regional Weather Roundup
Issued by NWS

Home | Current Version | Previous Version | Graphics & Text | Print | Product List | Glossary On
Versions: 1 2 3 4 5 6 7 8 9 10 11 12 13 14 15 16 17 18 19 20 21 22 23 24 25 26 27 28 29 30 31 32 33 34 35 36 37 38 39 40 41 42 43 44 45 46 47 48 49 50
000
ASUS43 KLOT 021710
RWRIL

ILLINOIS REGIONAL WEATHER ROUNDUP
NATIONAL WEATHER SERVICE CHICAGO/ROMEOVILLE IL
1200 PM CDT THU OCT 02 2014

NOTE: "FAIR" INDICATES FEW OR NO CLOUDS BELOW 12,000 FEET WITH NO
SIGNIFICANT WEATHER AND/OR OBSTRUCTIONS TO VISIBILITY.

* THESE STATIONS ARE NOT UNDER NWS QUALITY CONTROL. THEY ALSO MAY NOT
  REPORT WEATHER SUCH AS PRECIPITATION OR FOG.

ILZ001-002-007-009-015-016-024-021800-
NORTHWEST ILLINOIS

CITY           SKY/WX    TMP DP  RH WIND       PRES   REMARKS
MOLINE         CLOUDY    68  63  84 S8        29.83R
SAVANNA*       CLOUDY    71  63  76 S8        29.81S
$$

ILZ003-004-008-010-011-017-018-021800-
NORTH CENTRAL ILLINOIS

CITY           SKY/WX    TMP DP  RH WIND       PRES   REMARKS
ROCKFORD       CLOUDY    73  62  68 S13       29.83F
FREEPORT*      CLOUDY    70  63  77 S12       29.83S
ROCHELLE*      CLOUDY    70  62  77 S10       29.84S
DE KALB*       CLOUDY    68  62  81 S16       29.85R
PERU*          CLOUDY    70  64  83 S9        29.85F
$$

ILZ005-006-012>014-019>023-021800-
NORTHEAST ILLINOIS

CITY           SKY/WX    TMP DP  RH WIND       PRES   REMARKS
CHICAGO-OHARE  CLOUDY    72  62  71 SW12      29.84F
CHICAGO-MIDWAY CLOUDY    74  64  71 S12       29.85F
AURORA         CLOUDY    72  63  73 S13       29.85S
LANSING*       CLOUDY    67  64  90 SE6       29.87F
JOLIET*        CLOUDY    69  64  83 S5        29.86S
WAUKEGAN       PTSUNNY   69  62  78 SE9       29.81F
DUPAGE AIRPORT CLOUDY    72  64  76 S10       29.83F
KANKAKEE*      CLOUDY    74  67  76 SW13G18   29.87S
WHEELING       PTSUNNY   74  63  68 S14       29.85F
MORRIS*        CLOUDY    71  66  84 S6        29.85S
ROMEOVILLE*    CLOUDY    69  63  82 S7        29.86S
NORTHERLY ISL    N/A     70  63  78 SE13        N/A
$$

LMZ740>746-021800-
SOUTHERN LAKE MICHIGAN

STATION/POSITION SKY/WX   TEMP    WIND        PRES    VSBY  WAVE
                          AIR SEA DIR/SP/G                  HT/PER
                          (F)     (DEG/KT/KT) (MB)    (MI)  (FT/S)
SOUTHERN BUOY              63 62  160/ 12/ 14 1010.4F         2/ 4
WAUKEGAN HARBOR            64     150/ 14/ 15   N/A
HARRISON CRIB              66     150/ 13/ 15   N/A
BURNHAM HARBOR             69     140/  7/ 11   N/A
CALUMET HARBOR             69     170/  7/ 11 1010.1R
MICHIGAN CITY              67     150/  6/  8   N/A
MICHIGAN CITY 6N           66 64  160/  8/ 10   N/A           1
ST. JOSEPH                 65 63  140/  4/  6   N/A           1
$$

ILZ025>027-034>036-040-047-049-050-058-095>099-021800-
WEST-CENTRAL ILLINOIS

CITY           SKY/WX    TMP DP  RH WIND       PRES   REMARKS
QUINCY         LGT RAIN  66  63  90 SE13      29.79F
GALESBURG*     CLOUDY    65  63  93 S7        29.85R
MACOMB*        LGT RAIN  65  64  95 S6        29.85S
JACKSONVILLE*  TSTM      67  66  94 SW6       29.88F
PITTSFIELD*    RAIN      66  64  92 SE6       29.85F
$$

ILZ028>032-037-038-041>044-048-051>054-059>061-021800-
CENTRAL ILLINOIS

CITY           SKY/WX    TMP DP  RH WIND       PRES   REMARKS
PONTIAC        PTSUNNY   75  66  73 SW6       29.86S
BLOOMINGTON    MOSUNNY   73  67  81 SW15        N/A
DECATUR        CLOUDY    72  66  81 S13       29.88F
PEORIA         LGT RAIN  69  64  84 S10       29.86S
LACON*         CLOUDY    68  64  86 SW3       29.84F
LINCOLN*       CLOUDY    71  67  87 S8        29.86R
SPRINGFIELD    LGT RAIN  69  66  90 SW10G22   29.89R
TAYLORVILLE    CLOUDY    68  66  94 SW5       29.87S
$$

ILZ033-039-045-046-055>057-062-063-021800-
EAST-CENTRAL ILLINOIS

CITY           SKY/WX    TMP DP  RH WIND       PRES   REMARKS
CHAMPAIGN      MOSUNNY   73  66  78 S15       29.88F
DANVILLE*      PTSUNNY   74  66  77 SW18G24   29.85F
RANTOUL*       MOSUNNY   76  65  70 S16G24    29.88S
MATTOON        CLOUDY    74  67  78 S15G25    29.87F
PARIS*         PTSUNNY   70  67  89 S9        29.90F
$$

ILZ079-100>102-021800-
SOUTHWEST ILLINOIS

CITY           SKY/WX    TMP DP  RH WIND       PRES   REMARKS
ALTON          TSTM      68  66  94 NW14      29.91R
BELLEVILLE     DRIZZLE   81  73  76 VRB3      29.85F HX  85
CAHOKIA*       CLOUDY    77  69  76 NW21G30   29.88R
SPARTA*        CLOUDY    81  69  67 S9G17     29.88F HX  84
$$

ILZ064>066-069>071-074>076-080>082-084>086-088>090-092>094-021800-
SOUTH-CENTRAL ILLINOIS

CITY           SKY/WX    TMP DP  RH WIND       PRES   REMARKS
CARBONDALE     PTSUNNY   83  70  64 S13G22    29.89S HX  87
CAIRO*         CLOUDY    84  70  62 S12       29.90S HX  88
EFFINGHAM*     LGT RAIN  78  64  60 S8        29.90F HX  80
MARION         PTSUNNY   84  70  61 S14       29.90F HX  88
CENTRALIA*     PTSUNNY   81  67  62 S10       29.88F HX  83
SALEM*         PTSUNNY   83  72  69 S12       29.88F HX  88
METROPOLIS*    MOSUNNY   85  70  61 S12       29.90F HX  89
$$

ILZ067-068-072-073-078-083-087-091-021800-
SOUTHEAST ILLINOIS

CITY           SKY/WX    TMP DP  RH WIND       PRES   REMARKS
LAWRENCEVILLE  SUNNY     83  65  54 S12G17    29.92F HX  85
FLORA*         SUNNY     83  66  57 S13       29.90F HX  85
FAIRFIELD*     MOSUNNY   84  72  65 S13G23    29.89F HX  89
HARRISBURG*    MOSUNNY   84  68  57 S15       29.91F HX  87
ROBINSON*      MOSUNNY   80  66  62 S6        29.93F HX  82
CARMI*         SUNNY     85  68  56 S15       29.90F HX  89
$$

ABBREVIATIONS USED IN REMARKS
   TC - TEMPERATURE IN CELSIUS
  WCI - WIND CHILL INDEX
   HX - HEAT INDEX
  VSB - VISIBILITY
$$



USA.gov is the U.S. government's official web portal to all federal, state and local government web resources and services.